www.pogodaiklimat.ru
Время
(UTC), дата
12:53 10.12
13:53 10.12
14:53 10.12
15:53 10.12
16:53 10.12
17:53 10.12
18:53 10.12
19:53 10.12
20:53 10.12
21:53 10.12
22:53 10.12
23:53 10.12
00:53 10.12
01:53 10.12
02:53 10.12
03:53 10.12
04:53 10.12
05:53 10.12
06:53 11.12
07:53 11.12
08:53 11.12
09:53 11.12
10:53 11.12
11:53 11.12
12:53 11.12
13:53 11.12
14:15 11.12
14:24 11.12
14:34 11.12
14:41 11.12
14:48 11.12
14:53 11.12
15:00 11.12
15:14 11.12
15:26 11.12
15:53 11.12
16:14 11.12
16:26 11.12
16:53 11.12
17:39 11.12
17:53 11.12
18:36 11.12
18:53 11.12
19:53 11.12
20:53 11.12
21:53 11.12
22:53 11.12
23:53 11.12
Ветер
(напр.,м/с)
Видим. Явления Облачность Т
(С)
Тd
(С)
f
(%)
Тe
(С)
Тes
(С)
Комфортность P
(гПа)
Po
(гПа)
Тmin
(С)
Tmax
(С)
R
(мм)
R24
(мм)
S
(см)
Ю 1 16 км ясно -2.8 -5.6 81 -6 -6 1026.8 882.9
В 3 16 км ясно -3.9 -6.1 85 -9 -9 1027.4 883.2
В 3 16 км ясно -1.7 -3.9 85 -7 -7 1028.0 883.8
В 3 13 км ясно +0.6 -2.8 78 -4 -4 1028.2 884.4
В 4 16 км ясно +1.7 -2.2 75 -3 -2 1028.3 884.4 -4.4 +1.7
СВ 4 16 км ясно +3.3 -1.1 73 -1 +1 1027.6 884.1
СВ 3 16 км ясно +5.0 -0.6 67 +1 +4 1026.4 883.2
СВ 4 16 км ясно +5.0 -0.6 67 +1 +4 1026.2 883.2
СВ 4 16 км ясно +5.6 0.0 67 +2 +3 1026.1 882.9
СВ 4 16 км ясно +5.0 -0.6 67 +1 +2 1026.0 882.9
СВ 4 16 км ясно +2.8 -1.1 75 -2 -2 1025.9 882.7 +1.7 +5.6
СВ 6 16 км ясно +1.1 -1.7 82 -6 -6 1026.0 882.4
СВ 9 16 км ясно 0.0 -2.2 85 -8 -8 1025.6 881.8
СВ 9 16 км ясно -0.6 -2.8 85 -9 -9 1025.8 881.8
СВ 10 16 км ясно -1.1 -3.9 81 -10 -10 1024.9 881.2
СВ 10 16 км ясно -1.7 -3.9 85 -11 -11 1024.5 880.9
В 9 16 км ясно -1.7 -3.9 85 -11 -11 1024.1 880.9 -1.7 +2.8
СВ 9 16 км ясно -1.7 -4.4 82 -10 -10 1023.9 880.9
СВ 9 16 км ясно -1.7 -4.4 82 -10 -10 1023.0 880.3
СВ 8 16 км ясно -1.7 -4.4 82 -10 -10 1022.3 879.7
СВ 9 16 км ясно -1.7 -4.4 82 -10 -10 1022.4 880.0
СВ 8 16 км 8/0 3600 м
[средняя]
-1.7 -4.4 82 -10 -10 1022.2 879.7
СВ 8 16 км 8/0 3000 м
[средняя]
-1.7 -4.4 82 -10 -10 1022.0 879.2 -2.2 -1.1
В 6 16 км 10/8 1650 м
[средняя]
-1.1 -3.9 81 -8 -8 1022.6 879.4
В 6 16 км 10/10 1440 м -0.6 -3.9 78 -8 -8 1022.5 879.4
В 5 16 км 10/8 960 м
[средняя]
-0.6 -3.3 82 -7 -7 1023.2 880.0
В 4 4 км слабый снег, дымка 10/10 930 м -0.6 -2.2 89 -7 -7 880.0
В 4 4 км слабый снег, дымка 10/10 810 м -0.6 -2.2 89 -6 -6 880.0
В 4 2 км слабый снег, дымка 10/10 420 м -0.6 -2.2 89 -6 -6 880.0
ЮВ 4 800 м снег, переохлажденный туман 10/10 360 м -0.6 -1.7 92 -6 -6 880.3
В 4 800 м снег, переохлажденный туман 10/10 300 м -1.0 -2.0 93 -7 -7 880.3
В 3 800 м снег, переохлажденный туман 10/10 300 м -0.6 -1.7 92 -6 -6 1023.6 880.3
ЮВ 3 2 км слабый снег, дымка 10/10 300 м -0.6 -1.7 92 -6 -6 880.3
ЮВ 4 2 км слабый снег, дымка 10/10 270 м -0.6 -1.7 92 -6 -6 880.3
ЮВ 4 5 км слабый снег, дымка 10/10 240 м -0.6 -1.1 96 -6 -6 880.3
ЮВ 3 10 км дымка 10/10 240 м -0.6 -1.7 92 -6 -6 1024.2 880.6
ЮВ 3 10 км дымка 10/10 300 м 0.0 -1.1 92 -5 -5 880.9
ЮВ 3 10 км дымка 10/10 270 м 0.0 -0.6 96 -5 -5 880.9
ЮВ 3 16 км 10/10 780 м +1.1 0.0 92 -4 -4 1024.1 880.9 -1.7 +1.1
Ю 1 16 км 10/10 210 м +1.7 +0.6 92 -1 -1 880.9
Ю 1 16 км 10/10 270 м +2.2 +0.6 89 -1 -1 1023.8 880.6
Ю 2 16 км 10/10 780 м +2.2 +0.6 89 -2 -2 880.3
Ю 3 16 км 10/10 1470 м +2.2 +1.1 92 -2 -2 1023.2 880.3
Ю 1 16 км 10/10 1290 м +2.8 +1.7 92 0 0 1022.8 880.0
0 16 км 10/8 1230 м
[средняя]
+3.9 +1.7 86 +3 +3 1021.7 879.2
С 1 16 км 10/10 1260 м +3.9 +1.7 86 +2 +2 1022.2 879.4
0 16 км 10/10 1410 м +3.3 +1.7 89 +2 +2 1021.5 878.9 +1.1 +4.4
0 16 км 10/10 1470 м +3.3 +1.1 85 +2 +2 1021.8 879.2
Местоположение метеостанции Jerome County Airport: широта 42.7267 долгота -114.4572 высота над уровнем моря 1234 м.
В архиве по умолчанию представлена погода в Джероме за последние 1-2 суток. Обновление информации о фактической погоде в базе происходит ежечасно! Архивные данные за месяц целиком и за предыдущие месяцы Вы можете получить, выбрав интересующий диапазон дат из раскрывающегося списка и нажав кнопку "Ввод!".
Внимание! Архив погоды МЕТАР в базе сайта по станциям, не включенным в климатический монитор, хранится не более 60 дней. Нет смысла пытаться выбрать более раннюю дату.
*Определитесь, кто Вы:
Внимание! Время в таблицах - всемирное. Для получения местного времени необходимо прибавить поправку, которая равна ч.
Смотрите также архив погоды в соседних городах и на ближайших метеорологических станциях:
Партнеры нашего сайта:      
Пояснения к столбцам:
  • Ветер - указаны скорость ветра в м/с - средняя за 10 мин, порывы в срок и между сроками (в фигурных скобках) и направление, откуда дует ветер: С - северный,
  • СВ - северо-восточный, В - восточный, ЮВ - юго-восточный, Ю - южный, ЮЗ - юго-западный, З - западный, СЗ - северо-западный.
  • Видимость - горизонтальная дальность видимости в метрах или километрах. При видимости от 1 до 10 км при отсутствии осадков обычно наблюдается дымка, при ухудшении видимости до 1 км и менее - туман. В сухую погоду видимость может ухудшаться дымом, пылью или мглою.
  • Явления - указаны атмосферные явления, наблюдавшиеся в срок или в последний час перед сроком; фигурными скобками обозначены явления, наблюдавшиеся между сроками (за 1-3 часа до срока); квадратными скобками обозначены град или гололедные отложения с указанием их диаметра в мм.
  • Облачность - указаны через наклонную черту общая и нижняя облачность в баллах и высота нижней границы облаков в метрах; квадратными скобками обозначены формы облаков: Ci - перистые, Cs - перисто-слоистые, Cc - перисто-кучевые, Ac - высококучевые, As - высокослоистые, Sc - слоисто-кучевые, Ns - слоисто-дождевые, Cu - кучевые, Cb - кучево-дождевые. Подробнее классификацию облаков см. в Атласе облаков (PDF).
  • T - Температура воздуха - температура, измеренная на высоте 2 м над землей.
  • Td - Температура точки росы - температура, при понижении до которой содержащийся в воздухе водяной пар достигнет насыщения.
  • f - Относительная влажность воздуха - влажноcть воздуха, измеренная на высоте 2 м над землей.
  • Te - Эффективная температура - температура, которую ощущает одетый по сезону человек в тени. Характеристика душности погоды. При расчете учитывается влияние влажности воздуха и скорости ветра на теплоощущения человека.
  • Tes - Эффективная температура на солнце - температура, которую ощущает человек, с поправкой на солнечный нагрев. Характеристика знойности погоды. Зависит от высоты солнца над горизонтом, облачности и скорости ветра. Ночью, в пасмурную погоду, а также при ветре 12 м/с и более поправка равна нулю.
  • P - Атмосферное давление - приведенное к уровню моря атмосферное давление.
  • Po - Атмосферное давление - измеренное на уровне метеостанции атмосферное давление.
  • Tmin - Минимальная температура - минимум температуры воздуха на высоте 2 м над землей.
  • Tmax - Максимальная температура - максимум температуры воздуха на высоте 2 м над землей.
  • R - Количество осадков - Количество выпавших осадков за период времени, мм. При наведении курсора мыши на число - период времени, за который выпало указанное количество осадков.
  • R24 - Количество осадков - Количество выпавших осадков за 24 часа, мм.
  • S - Снежный покров - Высота снежного покрова, см. При наведении курсора мыши на число - состояние снежного покрова и степень покрытия местности в баллах.